| time (UTC) | temp F | wind direction | speed MPH | gust MPH | rain 1hr in | rain 24hr in | rain mn in | humidity % | barometer mb |
| 20260831220408 | 85 | 100 | 1.0 | 7.0 | 0.00 | 0.00 | 0.00 | 66 | 1019.4 |
| 20260831220207 | 85 | 53 | 1.0 | 7.0 | 0.00 | 0.00 | 0.00 | 66 | 1019.4 |
| 20260831220012 | 85 | 106 | 1.0 | 7.0 | 0.00 | 0.00 | 0.00 | 66 | 1019.5 |
| 20260831215807 | 86 | 100 | 1.0 | 7.0 | 0.00 | 0.00 | 0.00 | 66 | 1019.4 |
| 20260831215607 | 86 | 348 | 0.0 | 3.0 | 0.00 | 0.00 | 0.00 | 67 | 1019.5 |
| 20260831215408 | 86 | 64 | 0.0 | 3.0 | 0.00 | 0.00 | 0.00 | 67 | 1019.6 |
| 20260831215207 | 86 | 97 | 0.0 | 3.0 | 0.00 | 0.00 | 0.00 | 67 | 1019.6 |
| 20260831215009 | 86 | 18 | 0.0 | 6.0 | 0.00 | 0.00 | 0.00 | 67 | 1019.5 |
| 20260831214807 | 86 | 101 | 0.0 | 6.0 | 0.00 | 0.00 | 0.00 | 66 | 1019.5 |
| 20260831214607 | 86 | 78 | 1.0 | 6.0 | 0.00 | 0.00 | 0.00 | 66 | 1019.5 |
| 20260831214408 | 87 | 78 | 1.0 | 6.0 | 0.00 | 0.00 | 0.00 | 66 | 1019.6 |
| 20260831214208 | 87 | 53 | 1.0 | 6.0 | 0.00 | 0.00 | 0.00 | 64 | 1019.6 |
| 20260831214009 | 87 | 328 | 1.0 | 6.0 | 0.00 | 0.00 | 0.00 | 63 | 1019.7 |
| 20260831213806 | 88 | 13 | 1.0 | 6.0 | 0.00 | 0.00 | 0.00 | 64 | 1019.6 |
| 20260831213408 | 88 | 360 | 0.0 | 6.0 | 0.00 | 0.00 | 0.00 | 60 | 1019.6 |
| 20260831213009 | 89 | 331 | 0.0 | 0.0 | 0.00 | 0.00 | 0.00 | 62 | 1019.5 |
| 20260831212807 | 89 | 327 | 0.0 | 0.0 | 0.00 | 0.00 | 0.00 | 60 | 1019.4 |
| 20260831212607 | 89 | 327 | 0.0 | 0.0 | 0.00 | 0.00 | 0.00 | 59 | 1019.3 |
| 20260831212408 | 89 | 327 | 0.0 | 0.0 | 0.00 | 0.00 | 0.00 | 61 | 1019.3 |
| 20260831212009 | 89 | 327 | 0.0 | 0.0 | 0.00 | 0.00 | 0.00 | 58 | 1019.3 |
| 20260831211808 | 90 | 327 | 0.0 | 0.0 | 0.00 | 0.00 | 0.00 | 57 | 1019.2 |
| 20260831211607 | 90 | 327 | 0.0 | 0.0 | 0.00 | 0.00 | 0.00 | 57 | 1019.2 |
| 20260831211408 | 90 | 327 | 0.0 | 0.0 | 0.00 | 0.00 | 0.00 | 58 | 1019.1 |
| 20260831211206 | 90 | 327 | 0.0 | 0.0 | 0.00 | 0.00 | 0.00 | 56 | 1019.1 |
| 20260831211009 | 90 | 12 | 0.0 | 0.0 | 0.00 | 0.00 | 0.00 | 55 | 1019.2 |
| 20260831210807 | 90 | 98 | 0.0 | 0.0 | 0.00 | 0.00 | 0.00 | 55 | 1019.3 |
| 20260831210407 | 90 | 98 | 0.0 | 0.0 | 0.00 | 0.00 | 0.00 | 54 | 1019.3 |
| 20260831210207 | 90 | 98 | 0.0 | 0.0 | 0.00 | 0.00 | 0.00 | 56 | 1019.3 |
| 20260831210010 | 90 | 98 | 0.0 | 0.0 | 0.00 | 0.00 | 0.00 | 55 | 1019.2 |
| 20260831205808 | 90 | 98 | 0.0 | 0.0 | 0.00 | 0.00 | 0.00 | 54 | 1019.3 |
| 20260831205608 | 91 | 98 | 0.0 | 0.0 | 0.00 | 0.00 | 0.00 | 54 | 1019.3 |
| 20260831205420 | 91 | 218 | 0.0 | 0.0 | 0.00 | 0.00 | 0.00 | 51 | 1019.3 |
| 20260831205207 | 91 | 218 | 0.0 | 0.0 | 0.00 | 0.00 | 0.00 | 52 | 1019.2 |
| 20260831204807 | 91 | 101 | 0.0 | 0.0 | 0.00 | 0.00 | 0.00 | 50 | 1019.2 |
| 20260831204606 | 92 | 229 | 0.0 | 0.0 | 0.00 | 0.00 | 0.00 | 51 | 1019.3 |
| 20260831204407 | 92 | 229 | 0.0 | 0.0 | 0.00 | 0.00 | 0.00 | 49 | 1019.3 |
| 20260831204207 | 93 | 229 | 0.0 | 0.0 | 0.00 | 0.00 | 0.00 | 50 | 1019.2 |
| 20260831204010 | 94 | 227 | 0.0 | 0.0 | 0.00 | 0.00 | 0.00 | 48 | 1019.1 |
| 20260831203807 | 94 | 278 | 0.0 | 0.0 | 0.00 | 0.00 | 0.00 | 48 | 1019.1 |
| 20260831203607 | 95 | 278 | 0.0 | 0.0 | 0.00 | 0.00 | 0.00 | 48 | 1019.1 |
| 20260831203407 | 95 | 278 | 0.0 | 0.0 | 0.00 | 0.00 | 0.00 | 47 | 1019.2 |
| 20260831203207 | 95 | 168 | 0.0 | 0.0 | 0.00 | 0.00 | 0.00 | 48 | 1019.2 |
| 20260831202607 | 95 | 205 | 0.0 | 0.0 | 0.00 | 0.00 | 0.00 | 50 | 1019.2 |
| 20260831202407 | 95 | 120 | 0.0 | 0.0 | 0.00 | 0.00 | 0.00 | 51 | 1019.2 |
| 20260831202207 | 95 | 155 | 0.0 | 0.0 | 0.00 | 0.00 | 0.00 | 49 | 1019.2 |
| 20260831202010 | 95 | 208 | 0.0 | 0.0 | 0.00 | 0.00 | 0.00 | 49 | 1019.2 |
| 20260831201807 | 95 | 274 | 0.0 | 0.0 | 0.00 | 0.00 | 0.00 | 50 | 1019.2 |
| 20260831201607 | 95 | 281 | 0.0 | 0.0 | 0.00 | 0.00 | 0.00 | 48 | 1019.3 |
| 20260831201207 | 95 | 284 | 0.0 | 0.0 | 0.00 | 0.00 | 0.00 | 49 | 1019.3 |
| 20260831201010 | 95 | 283 | 0.0 | 0.0 | 0.00 | 0.00 | 0.00 | 52 | 1019.3 |
| 20260831200607 | 94 | 138 | 0.0 | 0.0 | 0.00 | 0.00 | 0.00 | 51 | 1019.3 |
| 20260831200407 | 94 | 253 | 0.0 | 0.0 | 0.00 | 0.00 | 0.00 | 52 | 1019.4 |
| 20260831200207 | 94 | 134 | 0.0 | 0.0 | 0.00 | 0.00 | 0.00 | 54 | 1019.4 |
| 20260831200010 | 93 | 128 | 0.0 | 0.0 | 0.00 | 0.00 | 0.00 | 52 | 1019.4 |
| 20260831195606 | 93 | 264 | 0.0 | 0.0 | 0.00 | 0.00 | 0.00 | 51 | 1019.5 |
| 20260831195206 | 93 | 88 | 0.0 | 0.0 | 0.00 | 0.00 | 0.00 | 48 | 1019.5 |
| 20260831194806 | 93 | 5 | 0.0 | 0.0 | 0.00 | 0.00 | 0.00 | 51 | 1019.6 |
| 20260831194606 | 93 | 113 | 0.0 | 0.0 | 0.00 | 0.00 | 0.00 | 51 | 1019.7 |
| 20260831194407 | 93 | 130 | 0.0 | 0.0 | 0.00 | 0.00 | 0.00 | 48 | 1019.7 |
| 20260831194008 | 94 | 5 | 0.0 | 0.0 | 0.00 | 0.00 | 0.00 | 49 | 1019.7 |
| 20260831193806 | 94 | 285 | 0.0 | 0.0 | 0.00 | 0.00 | 0.00 | 48 | 1019.7 |
| 20260831193405 | 95 | 295 | 0.0 | 0.0 | 0.00 | 0.00 | 0.00 | 48 | 1019.8 |
| 20260831193206 | 95 | 231 | 0.0 | 0.0 | 0.00 | 0.00 | 0.00 | 47 | 1019.9 |
| 20260831193007 | 95 | 229 | 0.0 | 0.0 | 0.00 | 0.00 | 0.00 | 51 | 1019.8 |
| 20260831192805 | 95 | 209 | 0.0 | 0.0 | 0.00 | 0.00 | 0.00 | 55 | 1019.8 |
| 20260831192609 | 95 | 150 | 0.0 | 0.0 | 0.00 | 0.00 | 0.00 | 55 | 1019.7 |
| 20260831192406 | 94 | 128 | 0.0 | 0.0 | 0.00 | 0.00 | 0.00 | 55 | 1019.7 |
| 20260831192205 | 94 | 103 | 0.0 | 0.0 | 0.00 | 0.00 | 0.00 | 51 | 1019.8 |
| 20260831192006 | 94 | 163 | 0.0 | 0.0 | 0.00 | 0.00 | 0.00 | 55 | 1019.8 |
| 20260831191807 | 94 | 49 | 0.0 | 0.0 | 0.00 | 0.00 | 0.00 | 57 | 1019.8 |
| 20260831191406 | 93 | 172 | 0.0 | 0.0 | 0.00 | 0.00 | 0.00 | 55 | 1020.1 |
| 20260831191208 | 93 | 261 | 0.0 | 0.0 | 0.00 | 0.00 | 0.00 | 53 | 1020.0 |
| 20260831191006 | 93 | 209 | 0.0 | 0.0 | 0.00 | 0.00 | 0.00 | 57 | 1020.1 |
| 20260831190607 | 93 | 188 | 0.0 | 0.0 | 0.00 | 0.00 | 0.00 | 56 | 1020.1 |
| 20260831190405 | 93 | 207 | 0.0 | 0.0 | 0.00 | 0.00 | 0.00 | 58 | 1020.1 |
| 20260831190209 | 92 | 198 | 0.0 | 0.0 | 0.00 | 0.00 | 0.00 | 56 | 1020.1 |
| 20260831190008 | 92 | 5 | 0.0 | 0.0 | 0.00 | 0.00 | 0.00 | 55 | 1020.1 |
| 20260831185806 | 92 | 146 | 0.0 | 0.0 | 0.00 | 0.00 | 0.00 | 58 | 1020.1 |
| 20260831185607 | 92 | 146 | 0.0 | 0.0 | 0.00 | 0.00 | 0.00 | 58 | 1020.1 |
| 20260831185406 | 92 | 113 | 0.0 | 0.0 | 0.00 | 0.00 | 0.00 | 63 | 1020.1 |
| 20260831185208 | 92 | 173 | 0.0 | 0.0 | 0.00 | 0.00 | 0.00 | 60 | 1020.1 |
| 20260831185006 | 91 | 17 | 0.0 | 0.0 | 0.00 | 0.00 | 0.00 | 58 | 1020.1 |
| 20260831184806 | 91 | 184 | 0.0 | 0.0 | 0.00 | 0.00 | 0.00 | 61 | 1020.1 |
| 20260831184607 | 91 | 212 | 0.0 | 0.0 | 0.00 | 0.00 | 0.00 | 63 | 1020.2 |
| 20260831184406 | 91 | 221 | 0.0 | 0.0 | 0.00 | 0.00 | 0.00 | 60 | 1020.4 |
| 20260831184209 | 90 | 221 | 0.0 | 0.0 | 0.00 | 0.00 | 0.00 | 61 | 1020.4 |
| 20260831184006 | 90 | 208 | 0.0 | 0.0 | 0.00 | 0.00 | 0.00 | 63 | 1020.5 |
| 20260831183806 | 90 | 219 | 0.0 | 0.0 | 0.00 | 0.00 | 0.00 | 64 | 1020.5 |
| 20260831183607 | 90 | 5 | 0.0 | 0.0 | 0.00 | 0.00 | 0.00 | 66 | 1020.5 |
| 20260831183406 | 90 | 5 | 0.0 | 0.0 | 0.00 | 0.00 | 0.00 | 64 | 1020.5 |
| 20260831183208 | 89 | 49 | 0.0 | 0.0 | 0.00 | 0.00 | 0.00 | 63 | 1020.4 |
| 20260831183006 | 89 | 49 | 0.0 | 0.0 | 0.00 | 0.00 | 0.00 | 65 | 1020.4 |
| 20260831182806 | 89 | 69 | 0.0 | 0.0 | 0.00 | 0.00 | 0.00 | 64 | 1020.3 |
| 20260831182607 | 89 | 65 | 0.0 | 0.0 | 0.00 | 0.00 | 0.00 | 63 | 1020.5 |
| 20260831182209 | 89 | 38 | 0.0 | 0.0 | 0.00 | 0.00 | 0.00 | 63 | 1020.6 |
| 20260831182006 | 90 | 61 | 0.0 | 0.0 | 0.00 | 0.00 | 0.00 | 61 | 1020.6 |
| 20260831181806 | 90 | 65 | 0.0 | 0.0 | 0.00 | 0.00 | 0.00 | 62 | 1020.6 |
| 20260831181606 | 90 | 48 | 0.0 | 0.0 | 0.00 | 0.00 | 0.00 | 63 | 1020.6 |
| 20260831181406 | 90 | 78 | 0.0 | 0.0 | 0.00 | 0.00 | 0.00 | 64 | 1020.6 |
| 20260831181208 | 89 | 17 | 0.0 | 0.0 | 0.00 | 0.00 | 0.00 | 65 | 1020.6 |
| 20260831181006 | 89 | 85 | 0.0 | 0.0 | 0.00 | 0.00 | 0.00 | 68 | 1020.7 |
| 20260831180806 | 89 | 338 | 0.0 | 0.0 | 0.00 | 0.00 | 0.00 | 66 | 1020.7 |
| 20260831180606 | 89 | 338 | 0.0 | 0.0 | 0.00 | 0.00 | 0.00 | 65 | 1020.7 |
| 20260831180406 | 89 | 311 | 0.0 | 0.0 | 0.00 | 0.00 | 0.00 | 66 | 1020.8 |
| 20260831180209 | 89 | 355 | 0.0 | 0.0 | 0.00 | 0.00 | 0.00 | 64 | 1020.8 |
| 20260831180007 | 89 | 327 | 0.0 | 0.0 | 0.00 | 0.00 | 0.00 | 63 | 1020.9 |
| 20260831175606 | 89 | 342 | 0.0 | 0.0 | 0.00 | 0.00 | 0.00 | 62 | 1020.9 |
| 20260831175406 | 90 | 57 | 0.0 | 0.0 | 0.00 | 0.00 | 0.00 | 69 | 1020.9 |
| 20260831175208 | 89 | 63 | 0.0 | 0.0 | 0.00 | 0.00 | 0.00 | 69 | 1021.0 |
| 20260831175006 | 89 | 119 | 0.0 | 0.0 | 0.00 | 0.00 | 0.00 | 69 | 1021.0 |
| 20260831174806 | 89 | 132 | 0.0 | 0.0 | 0.00 | 0.00 | 0.00 | 66 | 1020.9 |
| 20260831174606 | 89 | 283 | 0.0 | 0.0 | 0.00 | 0.00 | 0.00 | 67 | 1021.0 |
| 20260831174406 | 89 | 256 | 0.0 | 0.0 | 0.00 | 0.00 | 0.00 | 67 | 1021.0 |
| 20260831174208 | 89 | 355 | 0.0 | 0.0 | 0.00 | 0.00 | 0.00 | 66 | 1021.1 |
| 20260831174006 | 89 | 271 | 0.0 | 0.0 | 0.00 | 0.00 | 0.00 | 65 | 1021.1 |
| 20260831173805 | 89 | 355 | 0.0 | 0.0 | 0.00 | 0.00 | 0.00 | 66 | 1021.1 |
| 20260831173606 | 89 | 355 | 0.0 | 0.0 | 0.00 | 0.00 | 0.00 | 67 | 1021.2 |
| 20260831173208 | 89 | 208 | 0.0 | 0.0 | 0.00 | 0.00 | 0.00 | 66 | 1021.1 |
| 20260831173006 | 89 | 238 | 0.0 | 0.0 | 0.00 | 0.00 | 0.00 | 67 | 1021.1 |
| 20260831172806 | 89 | 234 | 0.0 | 0.0 | 0.00 | 0.00 | 0.00 | 67 | 1021.2 |
| 20260831172606 | 89 | 311 | 0.0 | 0.0 | 0.00 | 0.00 | 0.00 | 67 | 1021.1 |
| 20260831172208 | 88 | 266 | 0.0 | 0.0 | 0.00 | 0.00 | 0.00 | 68 | 1021.1 |
| 20260831172006 | 88 | 258 | 0.0 | 0.0 | 0.00 | 0.00 | 0.00 | 68 | 1021.2 |
| 20260831171806 | 88 | 261 | 0.0 | 0.0 | 0.00 | 0.00 | 0.00 | 68 | 1021.3 |
| 20260831171406 | 88 | 275 | 0.0 | 0.0 | 0.00 | 0.00 | 0.00 | 67 | 1021.2 |
| 20260831171208 | 88 | 306 | 0.0 | 0.0 | 0.00 | 0.00 | 0.00 | 68 | 1021.3 |
| 20260831171006 | 88 | 292 | 0.0 | 0.0 | 0.00 | 0.00 | 0.00 | 69 | 1021.2 |
| 20260831170806 | 87 | 345 | 0.0 | 0.0 | 0.00 | 0.00 | 0.00 | 69 | 1021.3 |
| 20260831170607 | 87 | 290 | 0.0 | 0.0 | 0.00 | 0.00 | 0.00 | 68 | 1021.3 |
| 20260831170410 | 87 | 280 | 0.0 | 0.0 | 0.00 | 0.00 | 0.00 | 67 | 1021.2 |
| 20260831170209 | 87 | 5 | 0.0 | 0.0 | 0.00 | 0.00 | 0.00 | 69 | 1021.3 |
| 20260831170008 | 87 | 348 | 0.0 | 0.0 | 0.00 | 0.00 | 0.00 | 70 | 1021.3 |
| 20260831165606 | 87 | 309 | 0.0 | 0.0 | 0.00 | 0.00 | 0.00 | 69 | 1021.3 |
| 20260831165006 | 87 | 210 | 0.0 | 0.0 | 0.00 | 0.00 | 0.00 | 70 | 1021.3 |
| 20260831164806 | 87 | 133 | 0.0 | 0.0 | 0.00 | 0.00 | 0.00 | 71 | 1021.4 |
| 20260831164606 | 86 | 328 | 0.0 | 0.0 | 0.00 | 0.00 | 0.00 | 71 | 1021.4 |
| 20260831164407 | 86 | 328 | 0.0 | 0.0 | 0.00 | 0.00 | 0.00 | 67 | 1021.5 |
| 20260831164208 | 87 | 308 | 0.0 | 0.0 | 0.00 | 0.00 | 0.00 | 70 | 1021.4 |
| 20260831164006 | 86 | 180 | 0.0 | 0.0 | 0.00 | 0.00 | 0.00 | 70 | 1021.5 |
| 20260831163806 | 86 | 16 | 0.0 | 0.0 | 0.00 | 0.00 | 0.00 | 71 | 1021.6 |
| 20260831163606 | 86 | 272 | 0.0 | 0.0 | 0.00 | 0.00 | 0.00 | 72 | 1021.5 |
| 20260831163406 | 86 | 236 | 0.0 | 0.0 | 0.00 | 0.00 | 0.00 | 72 | 1021.6 |
| 20260831163208 | 86 | 244 | 0.0 | 0.0 | 0.00 | 0.00 | 0.00 | 72 | 1021.6 |
| 20260831163006 | 85 | 265 | 0.0 | 0.0 | 0.00 | 0.00 | 0.00 | 73 | 1021.6 |
| 20260831162806 | 85 | 279 | 0.0 | 0.0 | 0.00 | 0.00 | 0.00 | 74 | 1021.6 |
| 20260831162606 | 85 | 257 | 0.0 | 0.0 | 0.00 | 0.00 | 0.00 | 71 | 1021.6 |
| 20260831162406 | 85 | 315 | 0.0 | 0.0 | 0.00 | 0.00 | 0.00 | 70 | 1021.6 |
| 20260831162006 | 86 | 300 | 0.0 | 0.0 | 0.00 | 0.00 | 0.00 | 71 | 1021.7 |
| 20260831161806 | 86 | 267 | 0.0 | 0.0 | 0.00 | 0.00 | 0.00 | 73 | 1021.5 |
| 20260831161606 | 86 | 109 | 0.0 | 0.0 | 0.00 | 0.00 | 0.00 | 73 | 1021.6 |
| 20260831161406 | 86 | 14 | 0.0 | 0.0 | 0.00 | 0.00 | 0.00 | 72 | 1021.5 |
| 20260831161006 | 86 | 329 | 0.0 | 0.0 | 0.00 | 0.00 | 0.00 | 74 | 1021.6 |
| 20260831160808 | 85 | 103 | 0.0 | 0.0 | 0.00 | 0.00 | 0.00 | 73 | 1021.7 |
| 20260831160406 | 85 | 249 | 0.0 | 0.0 | 0.00 | 0.00 | 0.00 | 73 | 1021.7 |
| 20260831160209 | 85 | 315 | 0.0 | 0.0 | 0.00 | 0.00 | 0.00 | 74 | 1021.7 |
| 20260831160008 | 85 | 235 | 0.0 | 0.0 | 0.00 | 0.00 | 0.00 | 74 | 1021.7 |
| 20260831155806 | 85 | 123 | 0.0 | 0.0 | 0.00 | 0.00 | 0.00 | 75 | 1021.7 |
| 20260831155606 | 85 | 267 | 0.0 | 0.0 | 0.00 | 0.00 | 0.00 | 72 | 1021.8 |
| 20260831155208 | 85 | 277 | 0.0 | 0.0 | 0.00 | 0.00 | 0.00 | 74 | 1021.8 |
| 20260831155008 | 85 | 295 | 0.0 | 0.0 | 0.00 | 0.00 | 0.00 | 74 | 1021.8 |
| 20260831154806 | 85 | 282 | 0.0 | 0.0 | 0.00 | 0.00 | 0.00 | 75 | 1021.8 |
| 20260831154606 | 85 | 54 | 0.0 | 0.0 | 0.00 | 0.00 | 0.00 | 77 | 1021.7 |
| 20260831154406 | 85 | 115 | 0.0 | 0.0 | 0.00 | 0.00 | 0.00 | 75 | 1021.9 |
| 20260831154208 | 85 | 5 | 0.0 | 0.0 | 0.00 | 0.00 | 0.00 | 76 | 1021.8 |
| 20260831154006 | 85 | 355 | 0.0 | 0.0 | 0.00 | 0.00 | 0.00 | 75 | 1021.8 |
| 20260831153806 | 85 | 325 | 0.0 | 0.0 | 0.00 | 0.00 | 0.00 | 76 | 1021.9 |
| 20260831153606 | 85 | 94 | 0.0 | 0.0 | 0.00 | 0.00 | 0.00 | 79 | 1021.9 |
| 20260831153406 | 85 | 94 | 0.0 | 0.0 | 0.00 | 0.00 | 0.00 | 78 | 1021.9 |
| 20260831153208 | 85 | 98 | 0.0 | 0.0 | 0.00 | 0.00 | 0.00 | 76 | 1021.9 |
| 20260831153007 | 84 | 99 | 0.0 | 0.0 | 0.00 | 0.00 | 0.00 | 79 | 1021.9 |
| 20260831152606 | 84 | 119 | 0.0 | 0.0 | 0.00 | 0.00 | 0.00 | 79 | 1021.9 |
| 20260831152406 | 84 | 26 | 0.0 | 0.0 | 0.00 | 0.00 | 0.00 | 82 | 1021.9 |
| 20260831152006 | 83 | 315 | 0.0 | 0.0 | 0.00 | 0.00 | 0.00 | 80 | 1022.0 |
| 20260831151806 | 83 | 281 | 0.0 | 0.0 | 0.00 | 0.00 | 0.00 | 79 | 1021.9 |
| 20260831151606 | 83 | 234 | 0.0 | 0.0 | 0.00 | 0.00 | 0.00 | 79 | 1021.9 |
| 20260831151208 | 82 | 266 | 0.0 | 0.0 | 0.00 | 0.00 | 0.00 | 81 | 1022.0 |
| 20260831151006 | 82 | 265 | 0.0 | 0.0 | 0.00 | 0.00 | 0.00 | 82 | 1021.9 |
| 20260831150807 | 82 | 316 | 0.0 | 0.0 | 0.00 | 0.00 | 0.00 | 82 | 1022.0 |
| 20260831150606 | 81 | 40 | 0.0 | 0.0 | 0.00 | 0.00 | 0.00 | 84 | 1021.9 |
| 20260831150406 | 81 | 157 | 0.0 | 0.0 | 0.00 | 0.00 | 0.00 | 83 | 1021.9 |
| 20260831150208 | 81 | 327 | 0.0 | 0.0 | 0.00 | 0.00 | 0.00 | 83 | 1021.9 |
| 20260831150008 | 80 | 261 | 0.0 | 0.0 | 0.00 | 0.00 | 0.00 | 83 | 1021.9 |
| 20260831145806 | 80 | 222 | 0.0 | 0.0 | 0.00 | 0.00 | 0.00 | 83 | 1021.9 |
| 20260831145606 | 80 | 256 | 0.0 | 0.0 | 0.00 | 0.00 | 0.00 | 84 | 1021.9 |
| 20260831145208 | 80 | 265 | 0.0 | 0.0 | 0.00 | 0.00 | 0.00 | 84 | 1021.9 |
| 20260831145006 | 80 | 269 | 0.0 | 0.0 | 0.00 | 0.00 | 0.00 | 84 | 1022.0 |
| 20260831144805 | 79 | 355 | 0.0 | 0.0 | 0.00 | 0.00 | 0.00 | 87 | 1022.0 |
| 20260831144606 | 79 | 305 | 0.0 | 0.0 | 0.00 | 0.00 | 0.00 | 87 | 1022.0 |
| 20260831144406 | 79 | 360 | 0.0 | 0.0 | 0.00 | 0.00 | 0.00 | 89 | 1022.0 |
| 20260831144209 | 78 | 248 | 0.0 | 0.0 | 0.00 | 0.00 | 0.00 | 89 | 1022.1 |
| 20260831144006 | 78 | 273 | 0.0 | 0.0 | 0.00 | 0.00 | 0.00 | 89 | 1022.1 |
| 20260831143805 | 78 | 281 | 0.0 | 0.0 | 0.00 | 0.00 | 0.00 | 89 | 1022.1 |
| 20260831143406 | 77 | 259 | 0.0 | 0.0 | 0.00 | 0.00 | 0.00 | 92 | 1022.0 |
| 20260831143006 | 77 | 331 | 0.0 | 0.0 | 0.00 | 0.00 | 0.00 | 92 | 1022.0 |
| 20260831142806 | 76 | 284 | 0.0 | 0.0 | 0.00 | 0.00 | 0.00 | 93 | 1021.9 |
| 20260831142406 | 76 | 245 | 0.0 | 0.0 | 0.00 | 0.00 | 0.00 | 93 | 1022.0 |
| 20260831142208 | 76 | 246 | 0.0 | 0.0 | 0.00 | 0.00 | 0.00 | 93 | 1021.9 |
| 20260831142006 | 76 | 284 | 0.0 | 0.0 | 0.00 | 0.00 | 0.00 | 94 | 1021.9 |
| 20260831141806 | 76 | 30 | 0.0 | 0.0 | 0.00 | 0.00 | 0.00 | 94 | 1021.9 |
| 20260831141606 | 75 | 296 | 0.0 | 0.0 | 0.00 | 0.00 | 0.00 | 94 | 1021.9 |
| 20260831141406 | 75 | 307 | 0.0 | 0.0 | 0.00 | 0.00 | 0.00 | 94 | 1021.9 |
| 20260831141208 | 75 | 281 | 0.0 | 0.0 | 0.00 | 0.00 | 0.00 | 94 | 1021.9 |
| 20260831141006 | 75 | 246 | 0.0 | 0.0 | 0.00 | 0.00 | 0.00 | 94 | 1021.9 |
| 20260831140806 | 75 | 275 | 0.0 | 0.0 | 0.00 | 0.00 | 0.00 | 94 | 1022.0 |
| 20260831140605 | 75 | 270 | 0.0 | 0.0 | 0.00 | 0.00 | 0.00 | 95 | 1021.9 |
| 20260831140405 | 74 | 277 | 0.0 | 0.0 | 0.00 | 0.00 | 0.00 | 95 | 1021.9 |
| 20260831140008 | 74 | 264 | 0.0 | 0.0 | 0.00 | 0.00 | 0.00 | 96 | 1021.9 |
| 20260831135809 | 74 | 292 | 0.0 | 0.0 | 0.00 | 0.00 | 0.00 | 97 | 1021.8 |
| 20260831135605 | 74 | 256 | 0.0 | 0.0 | 0.00 | 0.00 | 0.00 | 97 | 1021.9 |
| 20260831135406 | 74 | 246 | 0.0 | 0.0 | 0.00 | 0.00 | 0.00 | 97 | 1021.9 |
| 20260831135208 | 74 | 222 | 0.0 | 0.0 | 0.00 | 0.00 | 0.00 | 97 | 1021.8 |
| 20260831135006 | 74 | 222 | 0.0 | 0.0 | 0.00 | 0.00 | 0.00 | 97 | 1021.8 |
| 20260831134805 | 74 | 242 | 0.0 | 0.0 | 0.00 | 0.00 | 0.00 | 97 | 1021.7 |
| 20260831134406 | 73 | 236 | 0.0 | 0.0 | 0.00 | 0.00 | 0.00 | 98 | 1021.7 |
| 20260831134207 | 73 | 258 | 0.0 | 0.0 | 0.00 | 0.00 | 0.00 | 98 | 1021.7 |
| 20260831134005 | 73 | 258 | 0.0 | 0.0 | 0.00 | 0.00 | 0.00 | 98 | 1021.7 |
| 20260831133808 | 73 | 232 | 0.0 | 0.0 | 0.00 | 0.00 | 0.00 | 98 | 1021.7 |
| 20260831133605 | 73 | 262 | 0.0 | 0.0 | 0.00 | 0.00 | 0.00 | 98 | 1021.7 |
| 20260831133405 | 73 | 262 | 0.0 | 0.0 | 0.00 | 0.00 | 0.00 | 98 | 1021.7 |
| 20260831133006 | 72 | 262 | 0.0 | 0.0 | 0.00 | 0.00 | 0.00 | 98 | 1021.8 |
| 20260831132807 | 72 | 262 | 0.0 | 0.0 | 0.00 | 0.00 | 0.00 | 98 | 1021.7 |
| 20260831132408 | 72 | 246 | 0.0 | 0.0 | 0.00 | 0.00 | 0.00 | 98 | 1021.7 |
| 20260831132206 | 72 | 246 | 0.0 | 0.0 | 0.00 | 0.00 | 0.00 | 98 | 1021.7 |
| 20260831132006 | 72 | 246 | 0.0 | 0.0 | 0.00 | 0.00 | 0.00 | 98 | 1021.7 |
| 20260831131806 | 71 | 246 | 0.0 | 0.0 | 0.00 | 0.00 | 0.00 | 98 | 1021.7 |
| 20260831131607 | 71 | 246 | 0.0 | 0.0 | 0.00 | 0.00 | 0.00 | 98 | 1021.7 |
| 20260831131407 | 71 | 246 | 0.0 | 0.0 | 0.00 | 0.00 | 0.00 | 98 | 1021.7 |
| 20260831131008 | 71 | 246 | 0.0 | 0.0 | 0.00 | 0.00 | 0.00 | 98 | 1021.7 |
| 20260831130606 | 70 | 237 | 0.0 | 0.0 | 0.00 | 0.00 | 0.00 | 97 | 1021.7 |
| 20260831130407 | 70 | 237 | 0.0 | 0.0 | 0.00 | 0.00 | 0.00 | 97 | 1021.7 |
| 20260831130206 | 70 | 237 | 0.0 | 0.0 | 0.00 | 0.00 | 0.00 | 98 | 1021.7 |
| 20260831130010 | 70 | 237 | 0.0 | 0.0 | 0.00 | 0.00 | 0.00 | 97 | 1021.7 |
| 20260831125806 | 70 | 237 | 0.0 | 0.0 | 0.00 | 0.00 | 0.00 | 97 | 1021.6 |
| 20260831125606 | 70 | 237 | 0.0 | 0.0 | 0.00 | 0.00 | 0.00 | 96 | 1021.7 |
| 20260831125407 | 70 | 237 | 0.0 | 0.0 | 0.00 | 0.00 | 0.00 | 96 | 1021.7 |
| 20260831125008 | 69 | 237 | 0.0 | 0.0 | 0.00 | 0.00 | 0.00 | 96 | 1021.6 |
| 20260831124805 | 69 | 237 | 0.0 | 0.0 | 0.00 | 0.00 | 0.00 | 96 | 1021.6 |
| 20260831124606 | 69 | 237 | 0.0 | 0.0 | 0.00 | 0.00 | 0.00 | 96 | 1021.6 |
| 20260831124407 | 69 | 237 | 0.0 | 0.0 | 0.00 | 0.00 | 0.00 | 96 | 1021.6 |
| 20260831124206 | 69 | 237 | 0.0 | 0.0 | 0.00 | 0.00 | 0.00 | 96 | 1021.5 |
| 20260831124008 | 69 | 237 | 0.0 | 0.0 | 0.00 | 0.00 | 0.00 | 97 | 1021.6 |
| 20260831123805 | 69 | 237 | 0.0 | 0.0 | 0.00 | 0.00 | 0.00 | 96 | 1021.5 |
| 20260831123605 | 69 | 237 | 0.0 | 0.0 | 0.00 | 0.00 | 0.00 | 96 | 1021.6 |
| 20260831123405 | 69 | 237 | 0.0 | 0.0 | 0.00 | 0.00 | 0.00 | 97 | 1021.6 |
| 20260831123007 | 68 | 237 | 0.0 | 0.0 | 0.00 | 0.00 | 0.00 | 96 | 1021.6 |
| 20260831122607 | 68 | 237 | 0.0 | 0.0 | 0.00 | 0.00 | 0.00 | 96 | 1021.6 |
| 20260831122206 | 68 | 237 | 0.0 | 0.0 | 0.00 | 0.00 | 0.00 | 96 | 1021.5 |
| 20260831122007 | 68 | 237 | 0.0 | 0.0 | 0.00 | 0.00 | 0.00 | 96 | 1021.5 |
| 20260831121806 | 68 | 237 | 0.0 | 0.0 | 0.00 | 0.00 | 0.00 | 96 | 1021.6 |
| 20260831121608 | 68 | 237 | 0.0 | 0.0 | 0.00 | 0.00 | 0.00 | 96 | 1021.6 |
| 20260831121405 | 68 | 237 | 0.0 | 0.0 | 0.00 | 0.00 | 0.00 | 96 | 1021.6 |
| 20260831121205 | 68 | 237 | 0.0 | 0.0 | 0.00 | 0.00 | 0.00 | 96 | 1021.7 |
| 20260831121006 | 68 | 237 | 0.0 | 0.0 | 0.00 | 0.00 | 0.00 | 96 | 1021.5 |
| 20260831120806 | 68 | 237 | 0.0 | 0.0 | 0.00 | 0.00 | 0.00 | 95 | 1021.5 |
| 20260831120607 | 68 | 237 | 0.0 | 0.0 | 0.00 | 0.00 | 0.00 | 95 | 1021.5 |
| 20260831120009 | 68 | 237 | 0.0 | 0.0 | 0.00 | 0.00 | 0.00 | 95 | 1021.5 |
| 20260831115806 | 68 | 237 | 0.0 | 0.0 | 0.00 | 0.00 | 0.00 | 95 | 1021.6 |
| 20260831115606 | 68 | 237 | 0.0 | 0.0 | 0.00 | 0.00 | 0.00 | 95 | 1021.6 |
| 20260831115405 | 68 | 237 | 0.0 | 0.0 | 0.00 | 0.00 | 0.00 | 95 | 1021.6 |
| 20260831114806 | 68 | 237 | 0.0 | 0.0 | 0.00 | 0.00 | 0.00 | 95 | 1021.5 |
| 20260831114607 | 68 | 237 | 0.0 | 0.0 | 0.00 | 0.00 | 0.00 | 95 | 1021.6 |
| 20260831114406 | 68 | 237 | 0.0 | 0.0 | 0.00 | 0.00 | 0.00 | 95 | 1021.5 |
| 20260831113806 | 68 | 237 | 0.0 | 0.0 | 0.00 | 0.00 | 0.00 | 95 | 1021.4 |
| 20260831113607 | 68 | 237 | 0.0 | 0.0 | 0.00 | 0.00 | 0.00 | 96 | 1021.4 |
| 20260831113407 | 68 | 237 | 0.0 | 0.0 | 0.00 | 0.00 | 0.00 | 95 | 1021.5 |
| 20260831113208 | 68 | 237 | 0.0 | 0.0 | 0.00 | 0.00 | 0.00 | 95 | 1021.4 |
| 20260831113006 | 68 | 237 | 0.0 | 0.0 | 0.00 | 0.00 | 0.00 | 95 | 1021.3 |
| 20260831112806 | 68 | 237 | 0.0 | 0.0 | 0.00 | 0.00 | 0.00 | 95 | 1021.3 |
| 20260831112606 | 68 | 237 | 0.0 | 0.0 | 0.00 | 0.00 | 0.00 | 95 | 1021.3 |
| 20260831112406 | 68 | 237 | 0.0 | 0.0 | 0.00 | 0.00 | 0.00 | 95 | 1021.3 |
| 20260831112209 | 68 | 237 | 0.0 | 0.0 | 0.00 | 0.00 | 0.00 | 96 | 1021.3 |
| 20260831112005 | 68 | 237 | 0.0 | 0.0 | 0.00 | 0.00 | 0.00 | 96 | 1021.3 |
| 20260831111806 | 68 | 237 | 0.0 | 0.0 | 0.00 | 0.00 | 0.00 | 96 | 1021.2 |
| 20260831111605 | 68 | 237 | 0.0 | 0.0 | 0.00 | 0.00 | 0.00 | 96 | 1021.2 |
| 20260831111209 | 68 | 237 | 0.0 | 0.0 | 0.00 | 0.00 | 0.00 | 94 | 1021.1 |
| 20260831111005 | 68 | 237 | 0.0 | 0.0 | 0.00 | 0.00 | 0.00 | 94 | 1021.0 |
| 20260831110805 | 68 | 237 | 0.0 | 0.0 | 0.00 | 0.00 | 0.00 | 94 | 1021.0 |
| 20260831110606 | 68 | 237 | 0.0 | 0.0 | 0.00 | 0.00 | 0.00 | 94 | 1020.9 |
| 20260831110405 | 68 | 237 | 0.0 | 0.0 | 0.00 | 0.00 | 0.00 | 94 | 1021.0 |
| 20260831110209 | 68 | 237 | 0.0 | 0.0 | 0.00 | 0.00 | 0.00 | 94 | 1021.0 |
| 20260831105804 | 68 | 237 | 0.0 | 0.0 | 0.00 | 0.00 | 0.00 | 94 | 1021.0 |
| 20260831105606 | 68 | 237 | 0.0 | 0.0 | 0.00 | 0.00 | 0.00 | 94 | 1020.9 |
| 20260831105405 | 68 | 237 | 0.0 | 0.0 | 0.00 | 0.00 | 0.00 | 94 | 1020.9 |
| 20260831105207 | 68 | 237 | 0.0 | 0.0 | 0.00 | 0.00 | 0.00 | 94 | 1020.9 |
| 20260831104804 | 68 | 237 | 0.0 | 0.0 | 0.00 | 0.00 | 0.00 | 94 | 1020.7 |
| 20260831104604 | 68 | 237 | 0.0 | 0.0 | 0.00 | 0.00 | 0.00 | 94 | 1020.7 |
| 20260831104404 | 68 | 237 | 0.0 | 0.0 | 0.00 | 0.00 | 0.00 | 94 | 1020.8 |
| 20260831104206 | 68 | 237 | 0.0 | 0.0 | 0.00 | 0.00 | 0.00 | 94 | 1020.7 |
| 20260831103807 | 68 | 237 | 0.0 | 0.0 | 0.00 | 0.00 | 0.00 | 94 | 1020.8 |
| 20260831103606 | 68 | 237 | 0.0 | 0.0 | 0.00 | 0.00 | 0.00 | 94 | 1020.7 |
| 20260831103405 | 68 | 237 | 0.0 | 0.0 | 0.00 | 0.00 | 0.00 | 94 | 1020.7 |
| 20260831103205 | 68 | 237 | 0.0 | 0.0 | 0.00 | 0.00 | 0.00 | 94 | 1020.8 |
| 20260831102806 | 68 | 237 | 0.0 | 0.0 | 0.00 | 0.00 | 0.00 | 94 | 1020.7 |
| 20260831102604 | 68 | 237 | 0.0 | 0.0 | 0.00 | 0.00 | 0.00 | 94 | 1020.8 |
| 20260831102408 | 68 | 237 | 0.0 | 0.0 | 0.00 | 0.00 | 0.00 | 94 | 1020.8 |
| 20260831102204 | 68 | 237 | 0.0 | 0.0 | 0.00 | 0.00 | 0.00 | 94 | 1020.8 |
| 20260831102005 | 68 | 237 | 0.0 | 0.0 | 0.00 | 0.00 | 0.00 | 94 | 1020.9 |
| 20260831101806 | 68 | 237 | 0.0 | 0.0 | 0.00 | 0.00 | 0.00 | 94 | 1020.7 |
| 20260831101604 | 68 | 237 | 0.0 | 0.0 | 0.00 | 0.00 | 0.00 | 94 | 1020.8 |
| 20260831101408 | 68 | 237 | 0.0 | 0.0 | 0.00 | 0.00 | 0.00 | 94 | 1020.8 |
| 20260831101205 | 68 | 237 | 0.0 | 0.0 | 0.00 | 0.00 | 0.00 | 94 | 1020.9 |
| 20260831101005 | 69 | 237 | 0.0 | 0.0 | 0.00 | 0.00 | 0.00 | 94 | 1020.9 |
| 20260831100806 | 69 | 237 | 0.0 | 0.0 | 0.00 | 0.00 | 0.00 | 94 | 1021.0 |
| 20260831100605 | 68 | 237 | 0.0 | 0.0 | 0.00 | 0.00 | 0.00 | 94 | 1021.0 |
| 20260831100407 | 69 | 237 | 0.0 | 0.0 | 0.00 | 0.00 | 0.00 | 94 | 1020.9 |
| 20260831100007 | 69 | 237 | 0.0 | 0.0 | 0.00 | 0.00 | 0.00 | 94 | 1020.9 |
| 20260831095806 | 69 | 237 | 0.0 | 0.0 | 0.00 | 0.00 | 0.00 | 93 | 1021.0 |
| 20260831095407 | 69 | 237 | 0.0 | 0.0 | 0.00 | 0.00 | 0.00 | 94 | 1021.0 |
| 20260831095205 | 69 | 237 | 0.0 | 0.0 | 0.00 | 0.00 | 0.00 | 94 | 1021.0 |
| 20260831095004 | 69 | 237 | 0.0 | 0.0 | 0.00 | 0.00 | 0.00 | 94 | 1020.9 |
| 20260831094806 | 69 | 237 | 0.0 | 0.0 | 0.00 | 0.00 | 0.00 | 94 | 1021.0 |
| 20260831094605 | 69 | 237 | 0.0 | 0.0 | 0.00 | 0.00 | 0.00 | 94 | 1020.9 |
| 20260831094406 | 69 | 237 | 0.0 | 0.0 | 0.00 | 0.00 | 0.00 | 94 | 1020.9 |
| 20260831094205 | 69 | 237 | 0.0 | 0.0 | 0.00 | 0.00 | 0.00 | 94 | 1021.0 |
| 20260831094005 | 69 | 237 | 0.0 | 0.0 | 0.00 | 0.00 | 0.00 | 94 | 1020.9 |
| 20260831093806 | 69 | 237 | 0.0 | 0.0 | 0.00 | 0.00 | 0.00 | 94 | 1020.9 |
| 20260831093406 | 69 | 237 | 0.0 | 0.0 | 0.00 | 0.00 | 0.00 | 94 | 1020.9 |
| 20260831093205 | 69 | 237 | 0.0 | 0.0 | 0.00 | 0.00 | 0.00 | 94 | 1020.9 |
| 20260831093005 | 69 | 237 | 0.0 | 0.0 | 0.00 | 0.00 | 0.00 | 94 | 1021.0 |
| 20260831092806 | 69 | 237 | 0.0 | 0.0 | 0.00 | 0.00 | 0.00 | 94 | 1020.9 |
| 20260831092605 | 69 | 237 | 0.0 | 0.0 | 0.00 | 0.00 | 0.00 | 94 | 1020.9 |
| 20260831092407 | 69 | 237 | 0.0 | 0.0 | 0.00 | 0.00 | 0.00 | 94 | 1020.9 |
| 20260831092206 | 69 | 237 | 0.0 | 0.0 | 0.00 | 0.00 | 0.00 | 94 | 1020.9 |
| 20260831092006 | 69 | 237 | 0.0 | 0.0 | 0.00 | 0.00 | 0.00 | 94 | 1020.9 |
| 20260831091806 | 69 | 237 | 0.0 | 0.0 | 0.00 | 0.00 | 0.00 | 94 | 1020.9 |
| 20260831091605 | 69 | 237 | 0.0 | 0.0 | 0.00 | 0.00 | 0.00 | 94 | 1020.9 |
| 20260831091005 | 69 | 237 | 0.0 | 0.0 | 0.00 | 0.00 | 0.00 | 94 | 1021.0 |
| 20260831090806 | 69 | 237 | 0.0 | 0.0 | 0.00 | 0.00 | 0.00 | 94 | 1021.0 |
| 20260831090605 | 69 | 237 | 0.0 | 0.0 | 0.00 | 0.00 | 0.00 | 94 | 1021.0 |
| 20260831090407 | 69 | 237 | 0.0 | 0.0 | 0.00 | 0.00 | 0.00 | 94 | 1021.0 |
| 20260831090205 | 69 | 237 | 0.0 | 0.0 | 0.00 | 0.00 | 0.00 | 94 | 1021.0 |
| 20260831090007 | 69 | 237 | 0.0 | 0.0 | 0.00 | 0.00 | 0.00 | 94 | 1021.0 |
| 20260831085806 | 69 | 237 | 0.0 | 0.0 | 0.00 | 0.00 | 0.00 | 94 | 1021.0 |
| 20260831085605 | 69 | 237 | 0.0 | 0.0 | 0.00 | 0.00 | 0.00 | 94 | 1020.9 |
| 20260831085407 | 69 | 237 | 0.0 | 0.0 | 0.00 | 0.00 | 0.00 | 94 | 1021.0 |
| 20260831085205 | 69 | 237 | 0.0 | 0.0 | 0.00 | 0.00 | 0.00 | 94 | 1020.9 |
| 20260831085005 | 69 | 237 | 0.0 | 0.0 | 0.00 | 0.00 | 0.00 | 94 | 1020.9 |
| 20260831084806 | 69 | 237 | 0.0 | 0.0 | 0.00 | 0.00 | 0.00 | 94 | 1020.9 |
| 20260831084606 | 69 | 237 | 0.0 | 0.0 | 0.00 | 0.00 | 0.00 | 94 | 1020.8 |
| 20260831084407 | 69 | 237 | 0.0 | 0.0 | 0.00 | 0.00 | 0.00 | 94 | 1020.8 |
| 20260831084204 | 69 | 237 | 0.0 | 0.0 | 0.00 | 0.00 | 0.00 | 94 | 1021.0 |
| 20260831084005 | 69 | 237 | 0.0 | 0.0 | 0.00 | 0.00 | 0.00 | 94 | 1020.9 |
| 20260831083806 | 69 | 237 | 0.0 | 0.0 | 0.00 | 0.00 | 0.00 | 94 | 1020.9 |
| 20260831083004 | 70 | 237 | 0.0 | 0.0 | 0.00 | 0.00 | 0.00 | 95 | 1020.8 |
| 20260831082806 | 70 | 237 | 0.0 | 0.0 | 0.00 | 0.00 | 0.00 | 95 | 1020.9 |
| 20260831082605 | 70 | 237 | 0.0 | 0.0 | 0.00 | 0.00 | 0.00 | 96 | 1020.8 |
| 20260831082406 | 70 | 237 | 0.0 | 0.0 | 0.00 | 0.00 | 0.00 | 96 | 1020.8 |
| 20260831082205 | 70 | 237 | 0.0 | 0.0 | 0.00 | 0.00 | 0.00 | 96 | 1020.8 |
| 20260831082007 | 70 | 237 | 0.0 | 0.0 | 0.00 | 0.00 | 0.00 | 95 | 1020.7 |
| 20260831081606 | 69 | 237 | 0.0 | 0.0 | 0.00 | 0.00 | 0.00 | 94 | 1020.6 |
| 20260831081406 | 69 | 237 | 0.0 | 0.0 | 0.00 | 0.00 | 0.00 | 94 | 1020.6 |
| 20260831081205 | 69 | 237 | 0.0 | 0.0 | 0.00 | 0.00 | 0.00 | 94 | 1020.6 |
| 20260831081007 | 69 | 237 | 0.0 | 0.0 | 0.00 | 0.00 | 0.00 | 93 | 1020.7 |
| 20260831080805 | 69 | 237 | 0.0 | 0.0 | 0.00 | 0.00 | 0.00 | 93 | 1020.6 |
| 20260831080605 | 69 | 237 | 0.0 | 0.0 | 0.00 | 0.00 | 0.00 | 93 | 1020.6 |
| 20260831080406 | 69 | 237 | 0.0 | 0.0 | 0.00 | 0.00 | 0.00 | 94 | 1020.6 |
| 20260831080205 | 69 | 237 | 0.0 | 0.0 | 0.00 | 0.00 | 0.00 | 94 | 1020.6 |
| 20260831080009 | 69 | 237 | 0.0 | 0.0 | 0.00 | 0.00 | 0.00 | 93 | 1020.7 |
| 20260831075806 | 69 | 237 | 0.0 | 0.0 | 0.00 | 0.00 | 0.00 | 93 | 1020.6 |
| 20260831075605 | 69 | 237 | 0.0 | 0.0 | 0.00 | 0.00 | 0.00 | 93 | 1020.7 |
| 20260831075406 | 69 | 237 | 0.0 | 0.0 | 0.00 | 0.00 | 0.00 | 93 | 1020.6 |
| 20260831075205 | 69 | 237 | 0.0 | 0.0 | 0.00 | 0.00 | 0.00 | 93 | 1020.7 |
| 20260831075007 | 69 | 237 | 0.0 | 0.0 | 0.00 | 0.00 | 0.00 | 93 | 1020.7 |
| 20260831074805 | 69 | 237 | 0.0 | 0.0 | 0.00 | 0.00 | 0.00 | 93 | 1020.7 |
| 20260831074605 | 69 | 237 | 0.0 | 0.0 | 0.00 | 0.00 | 0.00 | 93 | 1020.8 |
| 20260831074406 | 69 | 237 | 0.0 | 0.0 | 0.00 | 0.00 | 0.00 | 93 | 1020.8 |
| 20260831074205 | 69 | 237 | 0.0 | 0.0 | 0.00 | 0.00 | 0.00 | 93 | 1020.7 |
| 20260831074007 | 70 | 237 | 0.0 | 0.0 | 0.00 | 0.00 | 0.00 | 93 | 1020.7 |
| 20260831073805 | 70 | 237 | 0.0 | 0.0 | 0.00 | 0.00 | 0.00 | 94 | 1020.6 |
| 20260831073605 | 70 | 237 | 0.0 | 0.0 | 0.00 | 0.00 | 0.00 | 93 | 1020.5 |
| 20260831073406 | 70 | 237 | 0.0 | 0.0 | 0.00 | 0.00 | 0.00 | 93 | 1020.5 |
| 20260831073007 | 70 | 237 | 0.0 | 0.0 | 0.00 | 0.00 | 0.00 | 93 | 1020.4 |
| 20260831072805 | 70 | 237 | 0.0 | 0.0 | 0.00 | 0.00 | 0.00 | 93 | 1020.5 |
| 20260831072605 | 70 | 237 | 0.0 | 0.0 | 0.00 | 0.00 | 0.00 | 93 | 1020.6 |
| 20260831072406 | 70 | 237 | 0.0 | 0.0 | 0.00 | 0.00 | 0.00 | 93 | 1020.5 |
| 20260831072205 | 70 | 237 | 0.0 | 0.0 | 0.00 | 0.00 | 0.00 | 93 | 1020.5 |
| 20260831072007 | 70 | 237 | 0.0 | 0.0 | 0.00 | 0.00 | 0.00 | 93 | 1020.6 |
| 20260831071805 | 70 | 237 | 0.0 | 0.0 | 0.00 | 0.00 | 0.00 | 93 | 1020.6 |
| 20260831071605 | 70 | 237 | 0.0 | 0.0 | 0.00 | 0.00 | 0.00 | 93 | 1020.5 |
| 20260831071408 | 70 | 237 | 0.0 | 0.0 | 0.00 | 0.00 | 0.00 | 93 | 1020.6 |
| 20260831071009 | 70 | 237 | 0.0 | 0.0 | 0.00 | 0.00 | 0.00 | 93 | 1020.6 |
| 20260831070805 | 70 | 237 | 0.0 | 0.0 | 0.00 | 0.00 | 0.00 | 93 | 1020.6 |
| 20260831070406 | 70 | 237 | 0.0 | 0.0 | 0.00 | 0.00 | 0.00 | 93 | 1020.6 |
| 20260831070010 | 70 | 237 | 0.0 | 0.0 | 0.00 | 0.00 | 0.00 | 93 | 1020.7 |
| 20260831065805 | 70 | 237 | 0.0 | 0.0 | 0.00 | 0.00 | 0.00 | 93 | 1020.7 |
| 20260831065406 | 70 | 237 | 0.0 | 0.0 | 0.00 | 0.00 | 0.00 | 93 | 1020.7 |
| 20260831065205 | 70 | 237 | 0.0 | 0.0 | 0.00 | 0.00 | 0.00 | 94 | 1020.8 |
| 20260831065007 | 70 | 237 | 0.0 | 0.0 | 0.00 | 0.00 | 0.00 | 94 | 1020.7 |
| 20260831064805 | 70 | 237 | 0.0 | 0.0 | 0.00 | 0.00 | 0.00 | 94 | 1020.7 |
| 20260831064605 | 70 | 237 | 0.0 | 0.0 | 0.00 | 0.00 | 0.00 | 94 | 1020.7 |
| 20260831064406 | 71 | 237 | 0.0 | 0.0 | 0.00 | 0.00 | 0.00 | 95 | 1020.7 |
| 20260831063806 | 70 | 237 | 0.0 | 0.0 | 0.00 | 0.00 | 0.00 | 94 | 1020.7 |
| 20260831063605 | 70 | 237 | 0.0 | 0.0 | 0.00 | 0.00 | 0.00 | 94 | 1020.7 |
| 20260831063406 | 70 | 237 | 0.0 | 0.0 | 0.00 | 0.00 | 0.00 | 94 | 1020.6 |
| 20260831063205 | 70 | 237 | 0.0 | 1.0 | 0.00 | 0.00 | 0.00 | 94 | 1020.6 |
| 20260831063007 | 70 | 237 | 0.0 | 1.0 | 0.00 | 0.00 | 0.00 | 93 | 1020.7 |
| 20260831062804 | 70 | 237 | 0.0 | 1.0 | 0.00 | 0.00 | 0.00 | 93 | 1020.6 |
| 20260831062406 | 70 | 217 | 0.0 | 0.0 | 0.00 | 0.00 | 0.00 | 92 | 1020.7 |
| 20260831062205 | 70 | 217 | 0.0 | 0.0 | 0.00 | 0.00 | 0.00 | 93 | 1020.8 |
| 20260831061805 | 70 | 217 | 0.0 | 0.0 | 0.00 | 0.00 | 0.00 | 92 | 1020.7 |
| 20260831061604 | 70 | 217 | 0.0 | 0.0 | 0.00 | 0.00 | 0.00 | 92 | 1020.7 |
| 20260831061406 | 70 | 217 | 0.0 | 0.0 | 0.00 | 0.00 | 0.00 | 93 | 1020.8 |
| 20260831061205 | 70 | 217 | 0.0 | 0.0 | 0.00 | 0.00 | 0.00 | 92 | 1020.8 |
| 20260831061007 | 70 | 217 | 0.0 | 0.0 | 0.00 | 0.00 | 0.00 | 92 | 1020.8 |
| 20260831060805 | 70 | 217 | 0.0 | 0.0 | 0.00 | 0.00 | 0.00 | 93 | 1020.8 |
| 20260831060606 | 70 | 217 | 0.0 | 0.0 | 0.00 | 0.00 | 0.00 | 92 | 1020.8 |
| 20260831060406 | 70 | 217 | 0.0 | 0.0 | 0.00 | 0.00 | 0.00 | 92 | 1020.8 |
| 20260831060204 | 70 | 217 | 0.0 | 0.0 | 0.00 | 0.00 | 0.00 | 92 | 1020.8 |
| 20260831060011 | 70 | 217 | 0.0 | 0.0 | 0.00 | 0.00 | 0.00 | 92 | 1020.9 |
| 20260831055805 | 70 | 217 | 0.0 | 0.0 | 0.00 | 0.00 | 0.00 | 92 | 1021.0 |
| 20260831055605 | 70 | 217 | 0.0 | 0.0 | 0.00 | 0.00 | 0.00 | 92 | 1020.9 |
| 20260831055406 | 70 | 217 | 0.0 | 0.0 | 0.00 | 0.00 | 0.00 | 92 | 1021.0 |
| 20260831055205 | 70 | 217 | 0.0 | 0.0 | 0.00 | 0.00 | 0.00 | 92 | 1020.9 |
| 20260831055007 | 70 | 217 | 0.0 | 0.0 | 0.00 | 0.00 | 0.00 | 92 | 1020.9 |
| 20260831054805 | 70 | 217 | 0.0 | 0.0 | 0.00 | 0.00 | 0.00 | 92 | 1020.9 |
| 20260831054605 | 70 | 217 | 0.0 | 0.0 | 0.00 | 0.00 | 0.00 | 91 | 1020.9 |
| 20260831054406 | 70 | 217 | 0.0 | 0.0 | 0.00 | 0.00 | 0.00 | 91 | 1020.8 |
| 20260831054205 | 70 | 217 | 0.0 | 0.0 | 0.00 | 0.00 | 0.00 | 91 | 1020.8 |
| 20260831054007 | 71 | 217 | 0.0 | 0.0 | 0.00 | 0.00 | 0.00 | 91 | 1020.8 |
| 20260831053804 | 71 | 217 | 0.0 | 0.0 | 0.00 | 0.00 | 0.00 | 91 | 1020.9 |
| 20260831053605 | 71 | 217 | 0.0 | 0.0 | 0.00 | 0.00 | 0.00 | 91 | 1020.9 |
| 20260831053406 | 71 | 217 | 0.0 | 0.0 | 0.00 | 0.00 | 0.00 | 91 | 1020.9 |
| 20260831053204 | 71 | 217 | 0.0 | 0.0 | 0.00 | 0.00 | 0.00 | 91 | 1021.0 |
| 20260831052805 | 71 | 217 | 0.0 | 1.0 | 0.00 | 0.00 | 0.00 | 91 | 1020.9 |
| 20260831052604 | 71 | 217 | 0.0 | 1.0 | 0.00 | 0.00 | 0.00 | 92 | 1021.0 |
| 20260831052408 | 71 | 217 | 0.0 | 1.0 | 0.00 | 0.00 | 0.00 | 92 | 1020.9 |
| 20260831052205 | 71 | 217 | 0.0 | 0.0 | 0.00 | 0.00 | 0.00 | 91 | 1020.9 |
| 20260831052007 | 71 | 217 | 0.0 | 0.0 | 0.00 | 0.00 | 0.00 | 91 | 1020.9 |
| 20260831051804 | 71 | 217 | 0.0 | 0.0 | 0.00 | 0.00 | 0.00 | 91 | 1020.9 |
| 20260831051604 | 71 | 217 | 0.0 | 0.0 | 0.00 | 0.00 | 0.00 | 91 | 1020.9 |
| 20260831051406 | 71 | 217 | 0.0 | 0.0 | 0.00 | 0.00 | 0.00 | 91 | 1021.0 |
| 20260831051204 | 71 | 217 | 0.0 | 0.0 | 0.00 | 0.00 | 0.00 | 91 | 1020.9 |
| 20260831051007 | 71 | 217 | 0.0 | 0.0 | 0.00 | 0.00 | 0.00 | 91 | 1020.9 |
| 20260831050805 | 71 | 217 | 0.0 | 0.0 | 0.00 | 0.00 | 0.00 | 91 | 1020.9 |
| 20260831050406 | 71 | 217 | 0.0 | 0.0 | 0.00 | 0.00 | 0.00 | 90 | 1020.9 |
| 20260831050204 | 71 | 217 | 0.0 | 0.0 | 0.00 | 0.00 | 0.00 | 90 | 1020.9 |
| 20260831050009 | 71 | 217 | 0.0 | 0.0 | 0.00 | 0.00 | 0.00 | 90 | 1020.8 |
| 20260831045805 | 71 | 217 | 0.0 | 0.0 | 0.00 | 0.00 | 0.00 | 90 | 1020.9 |
| 20260831045604 | 71 | 217 | 0.0 | 0.0 | 0.00 | 0.00 | 0.00 | 90 | 1020.8 |
| 20260831045406 | 71 | 217 | 0.0 | 0.0 | 0.00 | 0.00 | 0.00 | 90 | 1020.9 |
| 20260831045205 | 71 | 217 | 0.0 | 0.0 | 0.00 | 0.00 | 0.00 | 90 | 1020.8 |
| 20260831045007 | 71 | 217 | 0.0 | 0.0 | 0.00 | 0.00 | 0.00 | 90 | 1020.9 |
| 20260831044806 | 71 | 217 | 0.0 | 0.0 | 0.00 | 0.00 | 0.00 | 90 | 1020.9 |
| 20260831044605 | 71 | 217 | 0.0 | 0.0 | 0.00 | 0.00 | 0.00 | 90 | 1020.9 |
| 20260831044407 | 71 | 217 | 0.0 | 0.0 | 0.00 | 0.00 | 0.00 | 90 | 1020.9 |
| 20260831044204 | 71 | 217 | 0.0 | 0.0 | 0.00 | 0.00 | 0.00 | 90 | 1021.0 |
| 20260831043605 | 71 | 217 | 0.0 | 0.0 | 0.00 | 0.00 | 0.00 | 90 | 1020.9 |
| 20260831043406 | 71 | 217 | 0.0 | 0.0 | 0.00 | 0.00 | 0.00 | 90 | 1020.8 |
| 20260831043204 | 71 | 217 | 0.0 | 0.0 | 0.00 | 0.00 | 0.00 | 90 | 1020.8 |
| 20260831043006 | 71 | 217 | 0.0 | 0.0 | 0.00 | 0.00 | 0.00 | 90 | 1020.9 |
| 20260831042804 | 71 | 217 | 0.0 | 0.0 | 0.00 | 0.00 | 0.00 | 90 | 1020.9 |
| 20260831042607 | 71 | 217 | 0.0 | 0.0 | 0.00 | 0.00 | 0.00 | 90 | 1020.9 |
| 20260831042404 | 71 | 217 | 0.0 | 0.0 | 0.00 | 0.00 | 0.00 | 90 | 1021.0 |
| 20260831042204 | 71 | 217 | 0.0 | 0.0 | 0.00 | 0.00 | 0.00 | 90 | 1021.0 |
| 20260831042004 | 72 | 217 | 0.0 | 0.0 | 0.00 | 0.00 | 0.00 | 90 | 1021.0 |
| 20260831041804 | 72 | 217 | 0.0 | 0.0 | 0.00 | 0.00 | 0.00 | 90 | 1021.1 |
| 20260831041607 | 72 | 217 | 0.0 | 0.0 | 0.00 | 0.00 | 0.00 | 90 | 1021.1 |
| 20260831041204 | 72 | 217 | 0.0 | 0.0 | 0.00 | 0.00 | 0.00 | 89 | 1021.1 |
| 20260831041004 | 72 | 217 | 0.0 | 0.0 | 0.00 | 0.00 | 0.00 | 89 | 1021.1 |
| 20260831040805 | 72 | 217 | 0.0 | 0.0 | 0.00 | 0.00 | 0.00 | 89 | 1021.1 |
| 20260831040606 | 72 | 217 | 0.0 | 0.0 | 0.00 | 0.00 | 0.00 | 89 | 1021.1 |
| 20260831040405 | 72 | 217 | 0.0 | 0.0 | 0.00 | 0.00 | 0.00 | 89 | 1021.1 |
| 20260831035807 | 72 | 217 | 0.0 | 0.0 | 0.00 | 0.00 | 0.00 | 89 | 1021.1 |
| 20260831035609 | 72 | 217 | 0.0 | 0.0 | 0.00 | 0.00 | 0.00 | 89 | 1021.0 |
| 20260831035407 | 72 | 217 | 0.0 | 0.0 | 0.00 | 0.00 | 0.00 | 89 | 1021.1 |
| 20260831035209 | 72 | 217 | 0.0 | 0.0 | 0.00 | 0.00 | 0.00 | 89 | 1021.1 |
| 20260831035009 | 72 | 217 | 0.0 | 0.0 | 0.00 | 0.00 | 0.00 | 89 | 1021.1 |
| 20260831034807 | 72 | 217 | 0.0 | 0.0 | 0.00 | 0.00 | 0.00 | 89 | 1021.1 |
| 20260831034608 | 72 | 217 | 0.0 | 0.0 | 0.00 | 0.00 | 0.00 | 89 | 1021.1 |
| 20260831034407 | 72 | 217 | 0.0 | 0.0 | 0.00 | 0.00 | 0.00 | 90 | 1021.0 |
| 20260831034209 | 72 | 217 | 0.0 | 0.0 | 0.00 | 0.00 | 0.00 | 90 | 1021.1 |
| 20260831034007 | 72 | 217 | 0.0 | 0.0 | 0.00 | 0.00 | 0.00 | 90 | 1021.1 |
| 20260831033807 | 72 | 217 | 0.0 | 0.0 | 0.00 | 0.00 | 0.00 | 90 | 1021.1 |
| 20260831033608 | 72 | 217 | 0.0 | 0.0 | 0.00 | 0.00 | 0.00 | 90 | 1021.1 |
| 20260831033209 | 73 | 217 | 0.0 | 0.0 | 0.00 | 0.00 | 0.00 | 89 | 1021.1 |
| 20260831033007 | 73 | 217 | 0.0 | 0.0 | 0.00 | 0.00 | 0.00 | 89 | 1021.1 |
| 20260831032807 | 73 | 217 | 0.0 | 0.0 | 0.00 | 0.00 | 0.00 | 89 | 1021.2 |
| 20260831032209 | 73 | 217 | 0.0 | 0.0 | 0.00 | 0.00 | 0.00 | 88 | 1021.1 |
| 20260831032007 | 73 | 217 | 0.0 | 0.0 | 0.00 | 0.00 | 0.00 | 88 | 1021.2 |
| 20260831031807 | 73 | 217 | 0.0 | 0.0 | 0.00 | 0.00 | 0.00 | 88 | 1021.2 |
| 20260831031609 | 73 | 217 | 0.0 | 0.0 | 0.00 | 0.00 | 0.00 | 88 | 1021.2 |
| 20260831031008 | 73 | 217 | 0.0 | 0.0 | 0.00 | 0.00 | 0.00 | 88 | 1021.1 |
| 20260831030809 | 73 | 217 | 0.0 | 0.0 | 0.00 | 0.00 | 0.00 | 88 | 1021.1 |
| 20260831030609 | 73 | 217 | 0.0 | 0.0 | 0.00 | 0.00 | 0.00 | 88 | 1021.2 |
| 20260831030407 | 73 | 217 | 0.0 | 0.0 | 0.00 | 0.00 | 0.00 | 88 | 1021.3 |
| 20260831030209 | 73 | 217 | 0.0 | 0.0 | 0.00 | 0.00 | 0.00 | 88 | 1021.3 |
| 20260831030009 | 73 | 217 | 0.0 | 0.0 | 0.00 | 0.00 | 0.00 | 89 | 1021.3 |
| 20260831025407 | 73 | 217 | 0.0 | 0.0 | 0.00 | 0.00 | 0.00 | 89 | 1021.1 |
| 20260831025209 | 73 | 217 | 0.0 | 0.0 | 0.00 | 0.00 | 0.00 | 88 | 1021.2 |
| 20260831025007 | 73 | 217 | 0.0 | 0.0 | 0.00 | 0.00 | 0.00 | 88 | 1021.1 |
| 20260831024807 | 73 | 217 | 0.0 | 0.0 | 0.00 | 0.00 | 0.00 | 88 | 1021.2 |
| 20260831024609 | 73 | 217 | 0.0 | 0.0 | 0.00 | 0.00 | 0.00 | 88 | 1021.2 |
| 20260831024209 | 74 | 217 | 0.0 | 1.0 | 0.00 | 0.00 | 0.00 | 87 | 1021.2 |
| 20260831024007 | 74 | 217 | 0.0 | 1.0 | 0.00 | 0.00 | 0.00 | 87 | 1021.1 |
| 20260831023807 | 74 | 217 | 0.0 | 1.0 | 0.00 | 0.00 | 0.00 | 87 | 1021.1 |
| 20260831023608 | 74 | 217 | 0.0 | 1.0 | 0.00 | 0.00 | 0.00 | 87 | 1021.1 |
| 20260831023407 | 74 | 217 | 0.0 | 0.0 | 0.00 | 0.00 | 0.00 | 87 | 1021.0 |
| 20260831023209 | 74 | 217 | 0.0 | 0.0 | 0.00 | 0.00 | 0.00 | 87 | 1021.0 |
| 20260831023007 | 74 | 217 | 0.0 | 0.0 | 0.00 | 0.00 | 0.00 | 87 | 1021.0 |
| 20260831022807 | 74 | 217 | 0.0 | 0.0 | 0.00 | 0.00 | 0.00 | 86 | 1021.1 |
| 20260831022609 | 74 | 217 | 0.0 | 0.0 | 0.00 | 0.00 | 0.00 | 86 | 1021.2 |
| 20260831022407 | 74 | 217 | 0.0 | 0.0 | 0.00 | 0.00 | 0.00 | 87 | 1021.1 |
| 20260831022209 | 74 | 217 | 0.0 | 0.0 | 0.00 | 0.00 | 0.00 | 87 | 1021.0 |
| 20260831022007 | 74 | 217 | 0.0 | 0.0 | 0.00 | 0.00 | 0.00 | 86 | 1021.1 |
| 20260831021809 | 74 | 217 | 0.0 | 0.0 | 0.00 | 0.00 | 0.00 | 86 | 1021.1 |
| 20260831021608 | 74 | 217 | 0.0 | 0.0 | 0.00 | 0.00 | 0.00 | 86 | 1021.1 |
| 20260831021407 | 74 | 217 | 0.0 | 0.0 | 0.00 | 0.00 | 0.00 | 86 | 1021.0 |
| 20260831021007 | 74 | 217 | 0.0 | 0.0 | 0.00 | 0.00 | 0.00 | 86 | 1021.1 |
| 20260831020807 | 74 | 217 | 0.0 | 0.0 | 0.00 | 0.00 | 0.00 | 86 | 1021.0 |
| 20260831020610 | 75 | 217 | 0.0 | 0.0 | 0.00 | 0.00 | 0.00 | 85 | 1021.1 |
| 20260831020407 | 75 | 217 | 0.0 | 0.0 | 0.00 | 0.00 | 0.00 | 85 | 1021.0 |
| 20260831020209 | 75 | 217 | 0.0 | 0.0 | 0.00 | 0.00 | 0.00 | 85 | 1021.0 |
| 20260831020009 | 75 | 217 | 0.0 | 0.0 | 0.00 | 0.00 | 0.00 | 85 | 1021.0 |
| 20260831015807 | 75 | 217 | 0.0 | 0.0 | 0.00 | 0.00 | 0.00 | 85 | 1021.0 |
| 20260831015608 | 75 | 217 | 0.0 | 0.0 | 0.00 | 0.00 | 0.00 | 85 | 1021.0 |
| 20260831015407 | 75 | 217 | 0.0 | 0.0 | 0.00 | 0.00 | 0.00 | 85 | 1021.1 |
| 20260831015209 | 75 | 217 | 0.0 | 0.0 | 0.00 | 0.00 | 0.00 | 85 | 1021.1 |
| 20260831015007 | 75 | 217 | 0.0 | 0.0 | 0.00 | 0.00 | 0.00 | 85 | 1021.1 |
| 20260831014807 | 75 | 217 | 0.0 | 0.0 | 0.00 | 0.00 | 0.00 | 85 | 1021.2 |
| 20260831014609 | 75 | 217 | 0.0 | 0.0 | 0.00 | 0.00 | 0.00 | 85 | 1021.2 |
| 20260831014407 | 75 | 217 | 0.0 | 0.0 | 0.00 | 0.00 | 0.00 | 85 | 1021.1 |
| 20260831014209 | 75 | 217 | 0.0 | 0.0 | 0.00 | 0.00 | 0.00 | 85 | 1021.1 |
| 20260831014007 | 75 | 217 | 0.0 | 0.0 | 0.00 | 0.00 | 0.00 | 85 | 1021.0 |
| 20260831013609 | 76 | 217 | 0.0 | 0.0 | 0.00 | 0.00 | 0.00 | 85 | 1021.0 |
| 20260831013407 | 76 | 217 | 0.0 | 0.0 | 0.00 | 0.00 | 0.00 | 85 | 1020.9 |
| 20260831013209 | 76 | 217 | 0.0 | 0.0 | 0.00 | 0.00 | 0.00 | 85 | 1020.9 |
| 20260831012608 | 76 | 217 | 0.0 | 0.0 | 0.00 | 0.00 | 0.00 | 84 | 1020.8 |
| 20260831012209 | 76 | 217 | 0.0 | 0.0 | 0.00 | 0.00 | 0.00 | 84 | 1020.9 |
| 20260831012007 | 76 | 217 | 0.0 | 0.0 | 0.00 | 0.00 | 0.00 | 84 | 1020.8 |
| 20260831011807 | 76 | 217 | 0.0 | 0.0 | 0.00 | 0.00 | 0.00 | 84 | 1020.8 |
| 20260831011608 | 76 | 217 | 0.0 | 0.0 | 0.00 | 0.00 | 0.00 | 84 | 1020.8 |
| 20260831011408 | 76 | 217 | 0.0 | 0.0 | 0.00 | 0.00 | 0.00 | 84 | 1020.8 |
| 20260831011209 | 77 | 217 | 0.0 | 0.0 | 0.00 | 0.00 | 0.00 | 84 | 1020.7 |
| 20260831011007 | 77 | 217 | 0.0 | 0.0 | 0.00 | 0.00 | 0.00 | 84 | 1020.7 |
| 20260831010807 | 77 | 217 | 0.0 | 0.0 | 0.00 | 0.00 | 0.00 | 84 | 1020.7 |
| 20260831010608 | 77 | 217 | 0.0 | 0.0 | 0.00 | 0.00 | 0.00 | 83 | 1020.6 |
| 20260831010209 | 77 | 217 | 0.0 | 0.0 | 0.00 | 0.00 | 0.00 | 83 | 1020.6 |
| 20260831010009 | 77 | 217 | 0.0 | 0.0 | 0.00 | 0.00 | 0.00 | 83 | 1020.7 |
| 20260831005807 | 77 | 217 | 0.0 | 0.0 | 0.00 | 0.21 | 0.00 | 82 | 1020.7 |
| 20260831005608 | 77 | 217 | 0.0 | 0.0 | 0.00 | 0.21 | 0.00 | 83 | 1020.7 |
| 20260831005209 | 77 | 217 | 0.0 | 0.0 | 0.00 | 0.21 | 0.00 | 82 | 1020.5 |
| 20260831005007 | 78 | 217 | 0.0 | 0.0 | 0.00 | 0.21 | 0.00 | 82 | 1020.4 |
| 20260831004807 | 78 | 217 | 0.0 | 0.0 | 0.00 | 0.21 | 0.00 | 82 | 1020.4 |
| 20260831004407 | 78 | 217 | 0.0 | 0.0 | 0.00 | 0.21 | 0.00 | 82 | 1020.5 |
| 20260831004211 | 78 | 217 | 0.0 | 0.0 | 0.00 | 0.21 | 0.00 | 81 | 1020.5 |
| 20260831003807 | 78 | 217 | 0.0 | 0.0 | 0.00 | 0.21 | 0.00 | 81 | 1020.4 |
| 20260831003607 | 78 | 217 | 0.0 | 0.0 | 0.00 | 0.21 | 0.00 | 81 | 1020.4 |
| 20260831003407 | 79 | 217 | 0.0 | 0.0 | 0.00 | 0.21 | 0.00 | 81 | 1020.4 |
| 20260831003210 | 79 | 217 | 0.0 | 0.0 | 0.00 | 0.21 | 0.00 | 80 | 1020.3 |
| 20260831003010 | 79 | 217 | 0.0 | 0.0 | 0.00 | 0.21 | 0.00 | 80 | 1020.2 |
| 20260831002607 | 79 | 217 | 0.0 | 0.0 | 0.00 | 0.21 | 0.00 | 80 | 1020.2 |
| 20260831002407 | 79 | 217 | 0.0 | 0.0 | 0.00 | 0.21 | 0.00 | 79 | 1020.1 |
| 20260831002209 | 79 | 217 | 0.0 | 0.0 | 0.00 | 0.21 | 0.00 | 79 | 1020.1 |
| 20260831002007 | 79 | 217 | 0.0 | 0.0 | 0.00 | 0.21 | 0.00 | 79 | 1020.1 |
| 20260831001807 | 79 | 217 | 0.0 | 0.0 | 0.00 | 0.21 | 0.00 | 79 | 1020.0 |
| 20260831001607 | 80 | 217 | 0.0 | 0.0 | 0.00 | 0.21 | 0.00 | 78 | 1020.1 |
| 20260831001408 | 80 | 217 | 0.0 | 0.0 | 0.00 | 0.21 | 0.00 | 77 | 1020.1 |
| 20260831001007 | 80 | 217 | 0.0 | 0.0 | 0.00 | 0.21 | 0.00 | 77 | 1020.1 |
| 20260831000807 | 80 | 217 | 0.0 | 0.0 | 0.00 | 0.21 | 0.00 | 77 | 1020.1 |
| 20260831000607 | 80 | 217 | 0.0 | 0.0 | 0.00 | 0.21 | 0.00 | 76 | 1020.1 |
| 20260831000410 | 80 | 217 | 0.0 | 0.0 | 0.00 | 0.21 | 0.00 | 76 | 1020.1 |
| 20260831000211 | 80 | 217 | 0.0 | 0.0 | 0.00 | 0.21 | 0.00 | 76 | 1020.1 |
| 20260831000009 | 81 | 217 | 0.0 | 0.0 | 0.00 | 0.21 | 0.00 | 76 | 1020.0 |
| 20260830235807 | 81 | 217 | 0.0 | 0.0 | 0.00 | 0.21 | 0.00 | 76 | 1019.9 |
| 20260830235607 | 81 | 217 | 0.0 | 0.0 | 0.00 | 0.21 | 0.00 | 76 | 1019.9 |
| 20260830235407 | 81 | 217 | 0.0 | 0.0 | 0.00 | 0.21 | 0.00 | 76 | 1020.0 |
| 20260830235209 | 81 | 217 | 0.0 | 0.0 | 0.00 | 0.21 | 0.00 | 75 | 1020.0 |
| 20260830235007 | 81 | 217 | 0.0 | 0.0 | 0.00 | 0.21 | 0.00 | 75 | 1019.9 |
| 20260830234807 | 81 | 217 | 0.0 | 0.0 | 0.00 | 0.21 | 0.00 | 75 | 1019.9 |
| 20260830234607 | 82 | 217 | 0.0 | 0.0 | 0.00 | 0.21 | 0.00 | 75 | 1019.8 |
| 20260830234407 | 82 | 217 | 0.0 | 0.0 | 0.00 | 0.21 | 0.00 | 75 | 1019.9 |
| 20260830234210 | 82 | 217 | 0.0 | 0.0 | 0.00 | 0.21 | 0.00 | 75 | 1019.9 |
| 20260830234007 | 82 | 217 | 0.0 | 0.0 | 0.00 | 0.21 | 0.00 | 75 | 1019.9 |
| 20260830233407 | 82 | 217 | 0.0 | 0.0 | 0.00 | 0.21 | 0.00 | 74 | 1019.9 |
| 20260830232807 | 83 | 217 | 0.0 | 0.0 | 0.00 | 0.21 | 0.00 | 73 | 1019.8 |
| 20260830232607 | 83 | 217 | 0.0 | 0.0 | 0.00 | 0.21 | 0.00 | 73 | 1019.9 |
| 20260830232208 | 83 | 217 | 0.0 | 0.0 | 0.00 | 0.21 | 0.00 | 73 | 1019.8 |
| 20260830232007 | 83 | 217 | 0.0 | 0.0 | 0.00 | 0.21 | 0.00 | 73 | 1019.8 |
| 20260830231809 | 83 | 217 | 0.0 | 0.0 | 0.00 | 0.21 | 0.00 | 73 | 1019.8 |
| 20260830231607 | 83 | 217 | 0.0 | 0.0 | 0.00 | 0.21 | 0.00 | 72 | 1019.8 |
| 20260830231407 | 83 | 217 | 0.0 | 0.0 | 0.00 | 0.21 | 0.00 | 72 | 1019.8 |
| 20260830231210 | 83 | 217 | 0.0 | 1.0 | 0.00 | 0.21 | 0.00 | 71 | 1019.9 |
| 20260830230810 | 83 | 217 | 0.0 | 2.0 | 0.00 | 0.21 | 0.00 | 71 | 1019.9 |
| 20260830230607 | 83 | 217 | 1.0 | 2.0 | 0.00 | 0.21 | 0.00 | 71 | 1019.9 |
| 20260830230407 | 83 | 217 | 1.0 | 2.0 | 0.00 | 0.21 | 0.00 | 70 | 1019.9 |
| 20260830230207 | 83 | 217 | 1.0 | 2.0 | 0.00 | 0.21 | 0.00 | 70 | 1019.8 |
| 20260830230010 | 83 | 217 | 1.0 | 2.0 | 0.00 | 0.21 | 0.00 | 70 | 1019.8 |
| 20260830225808 | 83 | 217 | 1.0 | 2.0 | 0.00 | 0.21 | 0.00 | 70 | 1019.7 |
| 20260830225607 | 84 | 217 | 1.0 | 2.0 | 0.00 | 0.21 | 0.00 | 70 | 1019.7 |
| 20260830225407 | 84 | 217 | 0.0 | 2.0 | 0.00 | 0.21 | 0.00 | 69 | 1019.7 |
| 20260830225207 | 84 | 217 | 0.0 | 0.0 | 0.00 | 0.21 | 0.00 | 69 | 1019.7 |
| 20260830225007 | 84 | 217 | 0.0 | 2.0 | 0.00 | 0.21 | 0.00 | 69 | 1019.8 |
| 20260830224807 | 84 | 217 | 0.0 | 2.0 | 0.00 | 0.21 | 0.00 | 69 | 1019.8 |
| 20260830224606 | 84 | 217 | 0.0 | 2.0 | 0.00 | 0.21 | 0.00 | 69 | 1019.8 |
| 20260830224408 | 84 | 217 | 0.0 | 2.0 | 0.00 | 0.21 | 0.00 | 69 | 1019.7 |
| 20260830224207 | 84 | 217 | 0.0 | 2.0 | 0.00 | 0.21 | 0.00 | 69 | 1019.7 |
| 20260830223807 | 84 | 229 | 0.0 | 1.0 | 0.00 | 0.21 | 0.00 | 69 | 1019.8 |
| 20260830223607 | 84 | 229 | 0.0 | 1.0 | 0.00 | 0.21 | 0.00 | 68 | 1019.8 |
| 20260830223408 | 84 | 229 | 0.0 | 1.0 | 0.00 | 0.21 | 0.00 | 68 | 1019.7 |
| 20260830223207 | 85 | 229 | 0.0 | 1.0 | 0.00 | 0.21 | 0.00 | 68 | 1019.7 |
| 20260830223009 | 85 | 229 | 0.0 | 0.0 | 0.00 | 0.21 | 0.00 | 67 | 1019.7 |
| 20260830222807 | 85 | 229 | 0.0 | 0.0 | 0.00 | 0.21 | 0.00 | 67 | 1019.7 |
| 20260830222607 | 85 | 229 | 0.0 | 0.0 | 0.00 | 0.21 | 0.00 | 67 | 1019.7 |
| 20260830222409 | 85 | 229 | 0.0 | 0.0 | 0.00 | 0.21 | 0.00 | 67 | 1019.7 |
| 20260830222207 | 85 | 229 | 0.0 | 2.0 | 0.00 | 0.21 | 0.00 | 66 | 1019.6 |
| 20260830221806 | 85 | 229 | 0.0 | 2.0 | 0.00 | 0.21 | 0.00 | 65 | 1019.6 |
| 20260830221606 | 85 | 229 | 1.0 | 3.0 | 0.00 | 0.21 | 0.00 | 65 | 1019.7 |
| 20260830221408 | 85 | 229 | 0.0 | 3.0 | 0.00 | 0.21 | 0.00 | 66 | 1019.7 |
| 20260830221009 | 85 | 229 | 0.0 | 3.0 | 0.00 | 0.21 | 0.00 | 67 | 1019.8 |
| 20260830220807 | 85 | 208 | 1.0 | 3.0 | 0.00 | 0.21 | 0.00 | 68 | 1019.7 |
| 20260830220607 | 85 | 208 | 1.0 | 3.0 | 0.00 | 0.21 | 0.00 | 68 | 1019.7 |